7 * 24
多渠道服务支持
STARLINK-11616 是 SpaceX Starlink 项目中的一颗低轨通信卫星,属于第 5 批 Starlink 卫星任务(Transporter 5)的一部分,于 2023 年 10 月发射。该卫星运行在约 550 公里的轨道高度,旨在为全球提供高速互联网服务。Starlink 卫星采用先进推进系统和激光通信技术,具备自动避障能力,以减少对其他航天器和天文观测的干扰。该项目致力于构建覆盖全球的卫星互联网网络,尤其服务于偏远地区。
美国
(US)
| 数据来源 | 国际轨道数据 |
| 星历时间: | 2025-11-02T18:42:32+0800 22小时前 查看轨道信息 |
| 半长轴: | 6734.34km |
| 偏心率: | 0.0001991 |
| 轨道倾角: | 43.000° |
| 近地点辐角 | 275.743° |
| 升交点赤经 | 297.377° |
| 平近点角 | 84.321° |
| 近地点: | 354.864km |
| 远地点: | 357.546km |
| 周期: | 91.665分钟 |
| 每日圈数: | 15.709425 |